SCP
0 0 0 0 0 0 0 0 0 0 0 0 0 0 0 0 0 0 0 0 0 0 0 0 0 0 0 0 0 0 0 0 0 0 0 0 0 0 0 0 0 0 0
0 0 0 0 0 0 0 0 0 0 0 0 0 0 0 0 0 0 0 0 0 0 0 0 0 0 0 0 0 0 0 0 0 0 0 0 0 0 0 0 0 0 0
0 0 0 0 0 0 0 0 0 0 0 0 0 0 0 0 0 0 0 0 0 0 0 0 0 0 0 0 0 0 0 0 0 0 0 0 0 0 0 0 0 0 0
0 0 0 0 0 0 0 0 0 0 0 0 0 0 0 0 0 0 0 0 0 0 0 0 0 0 0 0 0 0 0 0 0 0 0 0 0 0 0 0 0 0 0
0 0 0 0 0 0 0 0 0 0 0 0 0 0 0 0 0 0 0 0 0 0 0 0 0 0 0 0 0 0 0 0 0 0 0 0 0 0 0 0 0 0 0
0 0 0 0 0 0 0 0 0 0 0 0 0 0 0 0 0 0 0 0 0 0 0 0 0 0 0 0 0 0 0 0 0 0 0 0 0 0 0 0 0 0 0
0 0 0 0 0 0 0 0 0 0 0 0 0 0 0 0 0 0 0 0 0 0 0 0 0 0 0 0 0 0 0 0 0 0 0 0 0 0 0 0 0 0 0
0 0 0 0 0 0 0 0 0 0 0 0 0 0 0 0 0 0 0 0 0 0 0 0 0 0 0 0 0 0 0 0 0 0 0 0 0 0 0 0 0 0 0
0 0 0 0 0 0 0 0 0 0 0 0 0 0 0 0 0 0 0 0 0 0 0 0 0 0 0 0 0 0 0 0 0 0 0 0 0 0 0 0 0 0 0
1 0 0 0 0 0 0 0 0 0 0 0 0 0 0 0 0 0 0 0 0 0 0 0 0 0 0 0 0 0 0 0 0 0 0 0 0 0 0 0 0 0 0
1 1 0 0 0 0 0 0 0 0 0 0 0 0 0 0 0 0 0 0 0 0 0 0 0 0 0 0 0 0 0 0 0 0 0 0 0 0 0 0 0 0 0
1 1 0 0 0 0 0 0 0 0 0 0 0 0 0 0 0 0 0 0 0 0 0 0 0 0 0 0 0 0 0 0 0 0 0 0 0 0 0 0 0 0 0
1 1 1 0 0 0 0 0 0 0 0 0 0 0 0 0 0 0 0 0 0 0 0 0 0 0 0 0 0 0 0 0 0 0 0 0 0 0 0 0 0 0 0
1 1 1 0 0 0 0 0 0 0 0 0 0 0 0 0 0 0 0 0 0 0 0 0 0 0 0 0 0 0 0 0 0 0 0 0 0 0 0 0 0 0 0
1 1 0 0 0 0 0 0 0 0 0 0 0 0 0 0 0 0 0 0 0 0 0 0 0 0 0 0 0 0 0 0 0 0 0 0 0 0 0 0 0 0 0
1 0 0 0 0 0 0 0 0 0 0 0 0 0 0 0 0 0 0 0 0 0 0 0 0 0 0 0 0 0 0 0 0 0 0 0 0 0 0 0 0 0 0
0 0 0 0 0 0 0 0 0 0 0 0 0 0 0 0 0 0 0 0 0 0 0 0 0 0 0 0 0 0 0 0 0 0 0 0 0 0 0 0 0 0 0
0 0 0 0 0 0 0 0 0 0 0 0 0 0 0 0 0 0 0 0 0 0 0 0 0 0 0 0 0 0 0 0 0 0 0 0 0 0 0 0 0 0 0
0 0 0 0 0 0 0 0 0 0 0 0 0 0 0 0 0 0 0 0 0 0 0 0 0 0 0 0 0 0 0 0 0 0 0 0 0 0 0 0 0 0 0
0 0 0 0 0 0 0 0 0 0 0 0 0 0 0 0 0 0 0 0 0 0 0 0 0 0 0 0 0 0 0 0 0 0 0 0 0 0 0 0 0 0 0
0 0 0 0 0 0 0 0 0 0 0 0 0 0 0 0 0 0 0 0 0 0 0 0 0 0 0 0 0 0 0 0 0 0 0 0 0 0 0 0 0 0 0
0 0 0 0 0 0 0 0 0 0 0 0 0 0 0 0 0 0 0 0 0 0 0 0 0 0 0 0 0 0 0 0 0 0 0 0 0 0 0 0 0 0 0
0 0 0 0 0 0 0 0 0 0 0 0 0 0 0 0 0 0 0 0 0 0 0 0 0 0 0 0 0 0 0 0 0 0 0 0 0 0 0 0 0 0 0
0 0 0 0 0 0 0 0 0 0 0 0 0 0 0 0 0 0 0 0 0 0 0 0 0 0 0 0 0 0 0 0 0 0 0 0 0 0 0 0 0 0 0
0 0 0 0 0 0 0 0 0 0 0 0 0 0 0 0 0 0 0 0 0 0 0 0 0 0 0 0 0 0 0 0 0 0 0 0 0 0 0 0 0 0 0
0 0 0 0 0 0 0 0 0 0 0 0 0 0 0 0 0 0 0 0 0 0 0 0 0 0 0 0 0 0 0 0 0 0 0 0 0 0 0 0 0 0 0
Wind_Speed
6 8 15 16 16 16 17 17 17 17 17 17 17 16 16 15 15 14 13 13 12 12 12 12 12 12 13 13 13 13 14 14 14 15 15 15 15 15 15 15 14 12 16
10 10 16 16 16 16 16 17 17 17 17 16 16 15 15 15 14 13 13 12 12 12 12 13 13 13 13 13 13 14 14 14 14 15 15 14 15 15 15 15 14 10 15
12 10 14 16 16 16 16 16 16 16 16 16 15 15 14 14 14 13 13 12 12 12 13 13 13 13 13 13 13 14 14 14 14 14 13 9 10 14 14 14 15 15 14
12 9 11 17 16 16 16 16 15 15 15 15 14 14 14 13 13 13 13 12 12 13 13 13 13 13 13 13 13 13 14 14 14 13 8 7 8 13 14 14 14 14 14
10 8 11 17 16 16 16 15 15 15 14 14 14 13 13 12 12 12 12 12 13 13 13 13 13 13 13 13 13 13 13 13 14 11 7 7 6 12 13 13 13 14 13
9 8 11 17 16 16 15 15 14 14 14 13 13 12 12 12 12 12 12 12 13 13 13 13 13 12 12 12 12 12 13 13 11 8 7 6 6 11 13 12 13 13 13
9 7 10 17 16 16 15 15 14 13 13 13 12 12 11 11 11 11 12 12 12 12 12 12 12 12 11 11 11 12 13 13 8 7 6 5 6 11 12 11 12 13 12
10 8 9 16 16 15 15 14 14 13 13 12 12 11 11 11 11 11 11 11 11 12 11 11 11 11 10 10 11 12 13 12 9 7 6 5 8 11 12 11 11 12 12
8 8 6 8 10 14 14 14 13 13 12 12 12 11 11 11 11 11 11 11 11 11 11 11 11 10 10 10 10 11 12 12 7 5 6 4 8 10 11 11 11 11 11
7 6 6 6 6 6 7 13 13 13 12 12 11 11 10 10 10 10 9 10 10 10 10 10 10 10 9 9 10 11 11 10 6 5 4 5 8 10 10 10 10 10 10
8 5 5 6 5 5 5 9 10 11 11 10 9 11 8 4 4 5 7 9 10 10 9 9 9 9 9 8 10 10 9 4 5 4 3 6 8 9 9 9 10 10 10
10 8 5 6 6 5 5 4 3 3 4 4 3 5 4 4 3 4 6 8 9 9 8 8 8 8 6 4 6 8 4 5 4 3 4 7 8 9 9 9 9 9 9
10 9 7 6 6 5 3 3 2 2 3 3 4 4 4 3 3 3 2 3 4 5 3 4 5 3 4 3 3 3 4 4 3 3 4 7 7 8 9 8 8 8 8
10 9 7 7 6 5 4 4 3 3 2 2 3 4 3 2 2 2 2 2 2 2 3 3 2 3 3 3 4 4 4 3 2 2 3 7 7 7 8 8 8 8 8
9 9 8 8 7 6 5 4 4 3 3 3 3 3 4 3 3 2 2 2 2 2 2 2 2 2 3 3 3 4 4 3 3 3 2 7 7 7 7 7 8 8 8
10 9 8 8 7 6 5 4 4 3 3 3 3 4 4 3 3 3 2 2 2 2 2 2 2 2 2 2 2 2 3 3 3 3 2 4 7 7 7 7 8 8 8
10 9 8 8 7 7 6 5 4 3 3 2 2 3 4 4 4 3 3 2 2 2 2 2 2 2 2 2 2 2 2 3 3 3 3 2 3 6 7 8 8 8 8
9 9 9 9 8 7 6 5 4 4 4 3 2 3 4 4 4 4 3 2 2 2 2 2 2 2 1 1 1 1 1 2 3 3 3 3 2 3 5 8 8 8 8
10 10 10 9 9 7 6 4 4 4 4 3 3 3 4 5 5 4 3 3 3 2 2 2 2 2 2 2 1 1 0 1 1 2 3 4 4 3 3 4 7 8 9
8 9 10 9 8 7 5 3 3 3 3 3 3 4 5 4 5 4 3 3 4 3 2 2 2 2 1 2 1 1 0 1 1 3 4 3 4 5 4 4 3 4 8
8 9 9 9 8 7 5 5 4 4 4 3 4 5 5 5 5 4 3 4 4 3 4 4 3 3 1 2 2 1 1 1 1 2 3 3 4 5 5 5 4 3 3
9 9 9 8 8 8 6 4 4 4 3 3 3 4 5 5 5 5 4 4 4 3 4 4 3 3 2 2 3 2 1 2 2 2 2 4 4 3 5 5 5 5 4
7 8 8 8 8 7 6 4 3 2 2 2 2 3 4 5 6 5 5 4 4 4 4 4 4 5 3 2 2 3 3 3 2 2 2 2 3 3 4 4 5 6 5
6 6 6 7 7 7 7 6 7 5 4 4 3 3 4 5 5 6 6 6 5 4 4 4 4 3 4 3 1 1 2 3 2 1 2 1 2 3 3 4 4 5 5
6 6 6 6 6 6 7 7 6 4 3 2 2 3 3 3 4 5 5 5 5 4 4 4 4 4 3 4 3 2 2 1 1 2 1 1 1 1 2 3 3 3 4
5 6 6 6 6 6 7 6 7 6 5 4 4 4 3 2 2 4 5 5 5 4 5 5 4 5 4 4 3 3 3 3 3 3 2 2 1 1 1 1 2 2 3
Wind_Direction
148 148 141 135 129 122 118 116 115 115 116 118 119 121 122 123 123 123 121 118 116 113 111 110 109 109 110 112 112 112 112 112 113 112 111 110 109 109 108 106 106 107 109
144 147 143 138 133 127 123 120 118 118 119 119 120 121 122 123 124 123 121 119 115 113 112 111 110 109 109 110 111 113 112 111 112 111 109 109 109 108 108 108 108 112 113
139 144 143 141 137 132 128 125 122 121 121 120 120 121 121 123 124 124 122 120 117 115 113 113 111 110 111 112 112 112 111 110 107 105 101 98 105 108 109 111 111 111 113
139 140 144 144 140 136 132 129 127 124 123 122 122 122 122 123 125 125 122 121 119 117 115 114 113 112 113 113 113 111 110 108 105 101 92 99 105 111 112 111 111 111 112
136 138 150 146 143 140 136 133 130 128 126 125 124 124 124 125 125 124 122 122 119 118 116 115 114 114 114 114 114 113 112 109 104 96 90 90 96 112 112 112 112 112 112
135 140 152 148 146 144 140 137 135 133 131 129 128 127 126 126 126 124 123 122 120 119 118 117 116 117 116 117 118 118 114 110 99 95 93 96 103 114 113 112 114 112 112
137 142 153 151 151 149 146 142 140 138 135 134 132 130 128 128 127 125 123 121 120 120 120 118 117 118 118 118 119 120 118 114 104 99 96 97 107 113 112 111 114 114 113
141 142 151 155 154 152 149 146 145 142 139 136 135 132 130 129 128 127 124 123 122 121 120 120 118 117 115 115 115 118 119 117 113 107 100 101 112 113 113 114 117 117 116
136 138 143 151 155 155 152 151 149 146 144 141 138 135 134 132 131 130 128 126 124 122 123 121 118 116 116 118 117 121 123 119 113 114 115 109 117 120 120 121 120 120 119
130 133 136 136 138 144 152 155 152 149 149 145 143 142 141 139 136 132 128 129 128 127 127 124 119 115 114 119 120 123 125 117 116 114 116 126 127 129 128 126 124 124 125
146 139 137 136 136 137 147 160 154 153 153 150 149 147 134 108 108 120 135 137 134 132 129 125 121 116 109 111 116 117 117 113 118 119 124 138 138 134 132 131 129 130 130
165 160 149 146 144 144 155 140 128 129 133 124 115 117 108 103 109 121 143 142 137 132 127 124 117 108 96 90 105 107 110 121 121 132 145 151 149 142 140 140 138 136 136
167 165 159 153 148 147 135 130 118 111 115 115 118 116 112 102 95 91 90 105 102 105 91 97 94 93 102 107 105 109 123 126 129 142 155 161 159 152 150 150 145 144 143
166 167 162 157 153 151 140 139 132 129 129 129 132 130 123 116 110 106 96 97 86 88 94 87 92 98 105 114 122 126 131 133 136 141 165 167 166 164 159 157 154 154 151
170 169 169 166 164 156 146 151 148 146 145 143 142 144 143 140 141 133 121 113 111 107 107 105 105 109 111 115 132 141 145 149 151 157 168 176 175 175 172 170 168 169 167
174 175 172 173 168 159 158 156 152 153 148 148 158 162 159 155 154 148 142 137 135 129 126 125 122 121 116 121 130 146 155 155 158 164 168 186 187 185 185 185 183 182 182
175 169 173 175 166 164 162 161 154 155 148 160 171 173 172 167 165 157 154 161 168 143 131 114 106 101 119 127 132 152 158 164 169 173 175 183 196 200 200 200 198 196 194
166 168 175 179 171 171 166 161 155 158 157 166 180 182 182 181 171 159 162 175 169 145 136 131 125 115 115 134 154 183 160 172 185 186 189 194 199 211 216 216 209 207 208
171 169 174 180 172 170 164 157 153 156 170 176 182 186 188 188 175 166 172 175 162 148 148 156 132 142 151 156 175 180 194 206 208 212 210 210 210 216 222 234 229 222 222
168 168 173 175 168 162 154 141 144 159 179 183 193 195 187 183 176 169 170 169 159 150 155 152 136 128 136 150 153 107 13 239 223 230 230 222 222 226 225 230 236 236 236
164 168 174 172 170 163 163 167 169 180 186 193 201 195 188 184 177 172 172 162 163 167 171 160 139 139 130 124 97 45 356 323 241 238 235 234 237 233 226 226 226 230 238
172 173 174 177 173 173 176 169 169 168 182 189 191 187 186 184 178 181 173 171 169 161 162 163 151 141 145 147 134 118 10 339 313 248 225 228 238 232 233 231 226 227 231
169 177 180 178 176 178 172 153 136 123 123 156 180 187 188 182 180 176 175 172 173 170 177 179 169 159 162 167 163 148 154 221 284 312 262 240 234 226 235 237 234 233 230
173 169 174 174 176 178 173 171 170 177 182 190 183 182 180 180 179 178 175 175 176 175 177 185 176 167 155 167 179 178 161 158 162 288 318 286 250 238 240 240 239 234 229
166 167 170 167 174 176 179 181 180 181 176 158 159 167 177 181 183 180 177 175 176 179 183 182 169 173 171 170 173 165 149 129 143 161 249 307 321 272 245 240 239 237 232
157 162 164 170 177 175 177 179 181 179 168 162 172 181 183 180 189 189 180 180 181 182 187 188 180 179 183 177 175 174 168 166 181 174 194 230 258 297 290 255 245 245 237